Location: Unspecified
(0.0000°N, 0.0000°E)
Time: 13:45:10
(UTC+00:00)

COSMOS 2497 - Pass Details

Date: 19 December 2025
Orbit: 1478 x 1511 km, 82.4° (Epoch: 13 January)

Event Time Altitude Azimuth Distance (km) Brightness Sun altitude
Exits shadow 20:28:52 39° 139° (SE) 2,117 ? -34.3°
Drops below altitude 10° 20:34:14 10° 162° (SSE) 3,647 ? -35.5°
Sets 20:37:13 0° 166° (SSE) 4,634 ? -36.1°
